Location: Gollag?dem
(16.8053°N, 80.8024°E)
Time: 13:20:46
(UTC+00:00)

Cosmos 1484 Rocket - Pass Details

Date: 13 August 2020
Orbit: 506 x 559 km, 97.4° (Epoch: 24 September)

Event Time Altitude Azimuth Distance (km) Brightness Sun altitude
Rises 22:41:17 0° 22° (NNE) 2,610 7.0 -23.2°
Reaches altitude 10° 22:43:28 10° 31° (NNE) 1,729 6.1 -22.7°
Maximum altitude 22:46:56 37° 100° (E) 806 4.0 -21.9°
Enters shadow 22:49:50 14° 165° (SSE) 1,512 5.0 -21.3°
